Location: Township of South Roscoe
(37.9570°N, 100.1180°W)
Time: 06:34:58
(UTC+00:00)

PRISM - Pass Details

Date: 02 July 2022
Orbit: 554 x 578 km, 98.2° (Epoch: 12 August)

Event Time Altitude Azimuth Distance (km) Brightness Sun altitude
Rises 10:40:14 0° 33° (NNE) 2,741 ? -7.7°
Reaches altitude 10° 10:43:09 10° 57° (ENE) 1,839 ? -7.2°
Maximum altitude 10:45:31 15° 94° (E) 1,526 ? -6.9°
Drops below altitude 10° 10:47:52 10° 131° (SE) 1,831 ? -6.5°
Sets 10:50:45 0° 154° (SSE) 2,721 ? -6.0°
